EW7641 Weather Reports


time (UTC)temp
F
wind
direction
speed
knots
gust
knots
rain 1hr
in
rain 24hr
in
rain mn
in
humidity
%
barometer
mb
20260906223328 89 70 0.0 9.6 0.00 0.02 0.00 34 1014.4
20260906221830 90 42 0.0 0.0 0.00 0.02 0.00 32 1014.5
20260906220341 88 42 0.0 0.0 0.00 0.02 0.00 32 1015.0
20260906214828 89 96 0.0 0.0 0.00 0.02 0.00 31 1015.2
20260906213402 91 61 0.0 0.0 0.00 0.02 0.00 29 1015.3
20260906211839 91 99 0.0 0.0 0.00 0.02 0.00 28 1015.4
20260906210346 89 12 0.0 0.0 0.00 0.02 0.00 32 1015.6
20260906204833 88 13 0.0 0.0 0.00 0.02 0.00 32 1015.9
20260906203327 88 5 0.0 0.0 0.00 0.02 0.00 33 1016.0
20260906201850 88 350 0.0 0.0 0.00 0.02 0.00 33 1016.2
20260906200339 88 300 0.0 0.0 0.00 0.02 0.00 35 1016.5
20260906194854 87 324 0.0 0.0 0.00 0.02 0.00 34 1016.7
20260906193359 86 311 0.0 0.0 0.00 0.02 0.00 36 1016.8
20260906191837 85 296 0.0 0.0 0.00 0.02 0.00 37 1017.2
20260906190327 84 304 0.0 0.0 0.00 0.02 0.00 38 1017.5
20260906184838 84 334 0.0 0.0 0.00 0.02 0.00 39 1017.9
20260906183325 83 330 0.0 0.0 0.00 0.02 0.00 38 1018.1
20260906181843 82 293 0.0 0.0 0.00 0.02 0.00 38 1018.4
20260906180351 81 287 0.0 0.0 0.00 0.02 0.00 38 1018.8
20260906174840 81 279 0.0 0.0 0.00 0.02 0.00 39 1019.1
20260906173327 80 277 0.0 0.0 0.00 0.02 0.00 41 1019.3
20260906171827 79 277 0.0 0.0 0.00 0.02 0.00 41 1019.8
20260906170334 79 277 0.0 0.0 0.00 0.02 0.00 42 1020.0
20260906164839 77 277 0.0 0.0 0.00 0.02 0.00 43 1020.2
20260906163326 77 277 0.0 0.0 0.00 0.02 0.00 43 1020.3
20260906161835 76 277 0.0 0.0 0.00 0.02 0.00 47 1020.3
20260906160328 74 275 0.0 0.0 0.00 0.02 0.00 49 1020.4
20260906154843 73 275 0.0 0.0 0.00 0.02 0.00 51 1020.4
20260906153331 73 273 0.0 0.0 0.00 0.02 0.00 51 1020.3
20260906151825 72 272 0.0 0.0 0.00 0.02 0.00 53 1020.5
20260906150356 71 272 0.0 0.0 0.00 0.02 0.00 50 1020.5
20260906144826 70 272 0.0 0.0 0.00 0.02 0.00 51 1020.5
20260906143400 70 272 0.0 0.0 0.00 0.02 0.00 50 1020.5
20260906141840 69 272 0.0 0.0 0.00 0.02 0.00 51 1020.5
20260906140328 69 272 0.0 0.0 0.00 0.02 0.00 54 1020.6
20260906134834 67 272 0.0 0.0 0.00 0.02 0.00 58 1020.7
20260906133335 65 272 0.0 0.0 0.00 0.02 0.00 62 1020.6
20260906131842 63 272 0.0 0.0 0.00 0.02 0.00 66 1020.4
20260906130336 61 272 0.0 0.0 0.00 0.02 0.00 68 1020.2
20260906124827 61 272 0.0 0.0 0.00 0.02 0.00 67 1020.0
20260906123331 61 272 0.0 0.0 0.00 0.02 0.00 65 1019.9
20260906121826 62 272 0.0 0.0 0.00 0.02 0.00 64 1019.8
20260906120337 63 272 0.0 0.0 0.00 0.02 0.00 62 1020.1
20260906114839 63 272 0.0 0.0 0.00 0.02 0.00 60 1020.2
20260906113328 63 272 0.0 0.0 0.00 0.02 0.00 62 1020.1
20260906111832 63 272 0.0 0.0 0.00 0.02 0.00 64 1019.9
20260906110341 63 272 0.0 0.0 0.00 0.02 0.00 63 1019.8
20260906104835 64 272 0.0 0.0 0.00 0.02 0.00 59 1019.6
20260906103329 64 272 0.0 0.0 0.00 0.02 0.00 61 1019.4
20260906101845 64 272 0.0 0.0 0.00 0.02 0.00 61 1019.4
20260906100338 64 272 0.0 0.0 0.00 0.02 0.00 62 1019.4
20260906094838 65 272 0.0 0.0 0.00 0.02 0.00 60 1019.4
20260906093403 65 272 0.0 0.0 0.00 0.02 0.00 58 1019.3
20260906091844 65 272 0.0 0.0 0.00 0.02 0.00 61 1019.2
20260906090328 65 272 0.0 0.0 0.00 0.02 0.00 60 1019.3
20260906084837 67 272 0.0 0.0 0.00 0.02 0.00 56 1019.1
20260906083327 67 272 0.0 0.0 0.00 0.02 0.00 53 1018.9
20260906081855 67 272 0.0 0.0 0.00 0.02 0.00 54 1019.0
20260906080357 67 272 0.0 0.0 0.00 0.02 0.00 55 1018.9
20260906074824 68 272 0.0 0.0 0.00 0.02 0.00 55 1018.9
20260906073330 68 272 0.0 0.0 0.00 0.02 0.00 54 1018.9
20260906071837 67 272 0.0 0.0 0.00 0.02 0.00 57 1018.9
20260906070328 66 272 0.0 0.0 0.00 0.02 0.00 60 1018.9
20260906064849 66 272 0.0 0.0 0.00 0.02 0.00 69 1019.1
20260906063339 66 272 0.0 0.0 0.00 0.02 0.00 68 1019.1
20260906061840 67 272 0.0 0.0 0.00 0.02 0.00 69 1019.3
20260906060348 67 272 0.0 0.0 0.00 0.02 0.00 69 1019.4
20260906054826 67 272 0.0 0.0 0.02 0.02 0.02 72 1019.5
20260906053333 68 272 0.0 0.0 0.02 0.02 0.02 70 1019.3
20260906051834 70 272 0.0 0.0 0.02 0.02 0.02 60 1019.3
20260906050343 72 272 0.0 0.0 0.02 0.02 0.02 52 1019.6
20260906044833 77 143 0.0 0.0 0.00 0.00 0.00 37 1019.3
20260906043328 76 132 0.0 0.0 0.00 0.00 0.00 34 1019.5
20260906041843 76 128 0.0 0.0 0.00 0.00 0.00 38 1019.4
20260906040329 75 128 0.0 0.0 0.00 0.00 0.00 35 1019.2
20260906034840 74 128 0.0 0.0 0.00 0.00 0.00 37 1019.1
20260906033325 74 157 0.0 0.0 0.00 0.00 0.00 38 1018.4
20260906031827 75 157 0.0 0.0 0.00 0.00 0.00 38 1018.1
20260906030328 76 157 0.0 0.0 0.00 0.00 0.00 35 1018.0
20260906024838 77 157 0.0 0.0 0.00 0.00 0.00 35 1017.7
20260906023326 79 157 0.0 0.0 0.00 0.00 0.00 33 1017.5
20260906021857 79 157 0.0 0.0 0.00 0.00 0.00 31 1017.6
20260906020330 80 157 0.0 0.0 0.00 0.00 0.00 30 1017.3
20260906014903 81 157 0.0 0.0 0.00 0.00 0.00 29 1017.1
20260906013337 83 157 0.0 0.0 0.00 0.00 0.00 28 1016.8
20260906011836 85 157 0.0 0.0 0.00 0.00 0.00 27 1016.7
20260906010339 87 157 0.0 0.0 0.00 0.00 0.00 25 1016.7
20260906004843 88 157 0.0 0.0 0.00 0.00 0.00 23 1016.7
20260906003329 89 157 0.0 0.0 0.00 0.00 0.00 22 1016.7
20260906001859 90 130 0.0 0.0 0.00 0.00 0.00 21 1016.6
20260906000329 90 50 0.0 0.0 0.00 0.00 0.00 21 1016.6
20260905234833 91 67 0.0 0.0 0.00 0.00 0.00 21 1016.5
20260905233323 91 61 0.0 0.0 0.00 0.00 0.00 20 1016.4
20260905231838 91 28 0.0 0.0 0.00 0.00 0.00 21 1016.5
20260905230342 90 318 0.0 0.0 0.00 0.00 0.00 21 1016.4
20260905224853 91 318 0.0 0.0 0.00 0.00 0.00 20 1016.4